User: anonymous   Login
Location: Unspecified
(0.0000°N, 0.0000°E)
Time: 20:05:57
(UTC+00:00)
Language:

Courier 1B - Orbit

View from above orbital plane
View from above orbital plane
View from above satellite
View from above satellite

Ground track
Ground track

The orbit data is extracted from the following two-line orbital elements,

1 00058U 60013A   14353.98704057  .00000072  00000-0 -16506-4 0  8383
2 00058 028.3250 193.7370 0164954 017.8502 342.7754 13.46285579668559
Epoch (UTC): 19 December 2014 23:41:20
Eccentricity: 0.0164954
inclination: 28.3250°
perigee height: 963 km
apogee height: 1209 km
right ascension of ascending node: 193.7370°
argument of perigee: 17.8502°
revolutions per day: 13.46285579
mean anomaly at epoch: 342.7754°
orbit number at epoch: 66855

The dashed part of the orbit path shows where the satellite is in the earth's shadow,  

DLR